timestamp,wind_dir_avg,wind_spd_max_dir,wind_spd_avg,wind_spd_gust,battery_voltage,lat,long
2018-05-15 00:00:00+00:00,231.0,235.0,5.62,6.45,,47.59359,-54.27349
2018-05-15 00:10:00+00:00,231.0,231.0,4.86,5.53,,47.59359,-54.27349
2018-05-15 00:20:00+00:00,232.0,232.0,6.41,7.26,,47.59359,-54.27349
2018-05-15 00:30:00+00:00,238.0,238.0,6.25,6.99,,47.59359,-54.27349
2018-05-15 00:40:00+00:00,238.0,237.0,8.04,9.43,,47.59359,-54.27349
2018-05-15 00:50:00+00:00,235.0,240.0,7.87,8.91,,47.59359,-54.27349
2018-05-15 01:00:00+00:00,232.0,232.0,6.89,7.55,,47.59359,-54.27349
2018-05-15 01:10:00+00:00,226.0,227.0,9.6,10.98,,47.59359,-54.27349
2018-05-15 01:20:00+00:00,230.0,231.0,8.52,9.77,,47.59359,-54.27349
2018-05-15 01:30:00+00:00,230.0,231.0,8.59,9.64,,47.59359,-54.27349
2018-05-15 01:40:00+00:00,229.0,228.0,8.9,10.59,,47.59359,-54.27349
2018-05-15 01:50:00+00:00,225.0,230.0,8.97,10.19,,47.59359,-54.27349
2018-05-15 02:00:00+00:00,226.0,228.0,8.31,9.53,,47.59359,-54.27349
2018-05-15 02:10:00+00:00,221.0,221.0,6.75,7.44,,47.59359,-54.27349
2018-05-15 02:20:00+00:00,219.0,217.0,8.01,8.97,,47.59359,-54.27349
2018-05-15 02:30:00+00:00,222.0,223.0,7.66,8.54,,47.59359,-54.27349
2018-05-15 02:40:00+00:00,231.0,233.0,8.13,8.81,,47.59359,-54.27349
2018-05-15 02:50:00+00:00,244.0,244.0,8.85,10.43,,47.59359,-54.27349
2018-05-15 03:00:00+00:00,224.0,223.0,9.48,11.04,,47.59359,-54.27349
2018-05-15 03:10:00+00:00,224.0,227.0,8.08,9.1,,47.59359,-54.27349
2018-05-15 03:20:00+00:00,226.0,226.0,8.53,9.84,,47.59359,-54.27349
2018-05-15 03:30:00+00:00,241.0,239.0,6.78,8.14,,47.59359,-54.27349
2018-05-15 03:40:00+00:00,250.0,259.0,6.64,7.71,,47.59359,-54.27349
2018-05-15 03:50:00+00:00,245.0,239.0,6.06,7.54,,47.59359,-54.27349
2018-05-15 04:00:00+00:00,252.0,252.0,6.27,7.34,,47.59359,-54.27349
2018-05-15 04:10:00+00:00,239.0,237.0,6.05,6.92,,47.59359,-54.27349
2018-05-15 04:20:00+00:00,253.0,256.0,5.86,6.8,,47.59359,-54.27349
2018-05-15 04:30:00+00:00,267.0,268.0,4.09,4.79,,47.59359,-54.27349
2018-05-15 04:40:00+00:00,273.0,273.0,3.96,4.46,,47.59359,-54.27349
2018-05-15 04:50:00+00:00,265.0,267.0,4.3,5.21,,47.59359,-54.27349
2018-05-15 05:00:00+00:00,235.0,239.0,4.81,5.81,,47.59359,-54.27349
2018-05-15 05:10:00+00:00,244.0,240.0,5.62,6.45,,47.59359,-54.27349
2018-05-15 05:20:00+00:00,234.0,231.0,5.11,5.96,,47.59359,-54.27349
2018-05-15 05:30:00+00:00,256.0,252.0,5.28,6.36,,47.59359,-54.27349
2018-05-15 05:40:00+00:00,280.0,275.0,5.26,5.68,,47.59359,-54.27349
2018-05-15 05:50:00+00:00,256.0,253.0,5.5,6.18,,47.59359,-54.27349
2018-05-15 06:00:00+00:00,253.0,252.0,5.38,5.77,,47.59359,-54.27349
2018-05-15 06:10:00+00:00,250.0,249.0,4.94,5.65,,47.59359,-54.27349
2018-05-15 06:20:00+00:00,250.0,244.0,4.67,5.36,,47.59359,-54.27349
2018-05-15 06:30:00+00:00,249.0,247.0,4.99,5.64,,47.59359,-54.27349
2018-05-15 06:40:00+00:00,244.0,243.0,4.44,4.9,,47.59359,-54.27349
2018-05-15 06:50:00+00:00,249.0,250.0,4.87,5.47,,47.59359,-54.27349
2018-05-15 07:00:00+00:00,236.0,242.0,4.31,4.73,,47.59359,-54.27349
2018-05-15 07:10:00+00:00,221.0,224.0,3.6,4.01,,47.59359,-54.27349
2018-05-15 07:20:00+00:00,222.0,221.0,4.58,4.97,,47.59359,-54.27349
2018-05-15 07:30:00+00:00,220.0,220.0,3.76,4.4,,47.59359,-54.27349
2018-05-15 07:40:00+00:00,218.0,219.0,4.55,4.97,,47.59359,-54.27349
2018-05-15 07:50:00+00:00,218.0,219.0,4.8,5.22,,47.59359,-54.27349
2018-05-15 08:00:00+00:00,215.0,216.0,4.78,5.3,,47.59359,-54.27349
2018-05-15 08:10:00+00:00,216.0,216.0,5.73,6.32,,47.59359,-54.27349
2018-05-15 08:20:00+00:00,217.0,216.0,5.88,6.32,,47.59359,-54.27349
2018-05-15 08:30:00+00:00,220.0,221.0,5.28,5.66,,47.59359,-54.27349
2018-05-15 08:40:00+00:00,220.0,223.0,5.42,6.19,,47.59359,-54.27349
2018-05-15 08:50:00+00:00,228.0,230.0,6.62,7.6,,47.59359,-54.27349
2018-05-15 09:00:00+00:00,227.0,232.0,6.25,6.98,,47.59359,-54.27349
2018-05-15 09:10:00+00:00,229.0,233.0,6.14,6.85,,47.59359,-54.27349
2018-05-15 09:20:00+00:00,228.0,230.0,7.34,8.21,,47.59359,-54.27349
2018-05-15 09:30:00+00:00,226.0,224.0,6.93,7.69,,47.59359,-54.27349
2018-05-15 09:40:00+00:00,226.0,223.0,6.59,7.16,,47.59359,-54.27349
2018-05-15 09:50:00+00:00,225.0,226.0,7.24,8.35,,47.59359,-54.27349
2018-05-15 10:00:00+00:00,220.0,218.0,6.66,7.19,,47.59359,-54.27349
2018-05-15 10:10:00+00:00,222.0,222.0,6.14,6.67,,47.59359,-54.27349
2018-05-15 10:20:00+00:00,221.0,221.0,5.79,6.26,,47.59359,-54.27349
2018-05-15 10:30:00+00:00,226.0,232.0,7.61,8.91,,47.59359,-54.27349
2018-05-15 10:40:00+00:00,234.0,237.0,6.71,7.6,,47.59359,-54.27349
2018-05-15 10:50:00+00:00,234.0,234.0,7.35,8.29,,47.59359,-54.27349
2018-05-15 11:00:00+00:00,235.0,240.0,6.93,7.8,,47.59359,-54.27349
2018-05-15 11:10:00+00:00,230.0,230.0,7.37,7.97,,47.59359,-54.27349
2018-05-15 11:20:00+00:00,229.0,230.0,7.06,8.04,,47.59359,-54.27349
2018-05-15 11:30:00+00:00,231.0,229.0,7.28,8.14,,47.59359,-54.27349
2018-05-15 11:40:00+00:00,225.0,224.0,6.61,7.27,,47.59359,-54.27349
2018-05-15 11:50:00+00:00,225.0,230.0,6.61,7.39,,47.59359,-54.27349
2018-05-15 12:00:00+00:00,227.0,227.0,5.92,6.41,,47.59359,-54.27349
2018-05-15 12:10:00+00:00,218.0,216.0,6.65,7.31,,47.59359,-54.27349
2018-05-15 12:20:00+00:00,224.0,225.0,7.07,7.62,,47.59359,-54.27349
2018-05-15 12:30:00+00:00,227.0,231.0,9.18,10.89,,47.59359,-54.27349
2018-05-15 12:40:00+00:00,231.0,230.0,8.87,9.87,,47.59359,-54.27349
2018-05-15 12:50:00+00:00,229.0,231.0,7.95,8.76,,47.59359,-54.27349
2018-05-15 13:00:00+00:00,224.0,227.0,7.05,8.16,,47.59359,-54.27349
2018-05-15 13:10:00+00:00,216.0,217.0,6.49,7.29,,47.59359,-54.27349
2018-05-15 13:20:00+00:00,217.0,226.0,5.67,6.82,,47.59359,-54.27349
2018-05-15 13:30:00+00:00,223.0,225.0,5.61,5.91,,47.59359,-54.27349
2018-05-15 13:40:00+00:00,228.0,234.0,7.08,8.08,,47.59359,-54.27349
2018-05-15 13:50:00+00:00,229.0,232.0,6.46,7.09,,47.59359,-54.27349
2018-05-15 14:00:00+00:00,220.0,221.0,6.09,6.81,,47.59359,-54.27349
2018-05-15 14:10:00+00:00,222.0,221.0,7.79,8.4,,47.59359,-54.27349
2018-05-15 14:20:00+00:00,218.0,218.0,6.97,7.71,,47.59359,-54.27349
2018-05-15 14:30:00+00:00,216.0,216.0,7.14,8.24,,47.59359,-54.27349
2018-05-15 14:40:00+00:00,220.0,220.0,7.1,7.95,,47.59359,-54.27349
2018-05-15 14:50:00+00:00,214.0,215.0,8.11,8.74,,47.59359,-54.27349
2018-05-15 15:00:00+00:00,224.0,230.0,7.75,8.67,,47.59359,-54.27349
2018-05-15 15:10:00+00:00,226.0,230.0,6.73,8.31,,47.59359,-54.27349
2018-05-15 15:20:00+00:00,232.0,238.0,6.61,7.86,,47.59359,-54.27349
2018-05-15 15:30:00+00:00,229.0,226.0,7.31,8.14,,47.59359,-54.27349
2018-05-15 15:40:00+00:00,227.0,229.0,6.71,7.32,,47.59359,-54.27349
2018-05-15 15:50:00+00:00,228.0,229.0,7.1,8.42,,47.59359,-54.27349
2018-05-15 16:00:00+00:00,223.0,224.0,7.83,9.1,,47.59359,-54.27349
2018-05-15 16:10:00+00:00,230.0,229.0,8.86,9.67,,47.59359,-54.27349
2018-05-15 16:20:00+00:00,229.0,232.0,9.72,11.25,,47.59359,-54.27349
2018-05-15 16:30:00+00:00,220.0,223.0,9.58,10.45,,47.59359,-54.27349
2018-05-15 16:40:00+00:00,220.0,220.0,10.47,11.63,,47.59359,-54.27349
2018-05-15 16:50:00+00:00,221.0,221.0,10.65,11.69,,47.59359,-54.27349
2018-05-15 17:00:00+00:00,220.0,220.0,10.83,11.92,,47.59359,-54.27349
2018-05-15 17:10:00+00:00,218.0,218.0,10.53,11.73,,47.59359,-54.27349
2018-05-15 17:20:00+00:00,218.0,216.0,9.9,11.18,,47.59359,-54.27349
2018-05-15 17:30:00+00:00,215.0,220.0,11.74,13.22,,47.59359,-54.27349
2018-05-15 17:40:00+00:00,216.0,217.0,11.12,12.26,,47.59359,-54.27349
2018-05-15 17:50:00+00:00,215.0,216.0,10.71,11.89,,47.59359,-54.27349
2018-05-15 18:00:00+00:00,212.0,215.0,10.08,11.32,,47.59359,-54.27349
2018-05-15 18:10:00+00:00,211.0,208.0,9.04,10.44,,47.59359,-54.27349
2018-05-15 18:20:00+00:00,205.0,207.0,10.58,12.03,,47.59359,-54.27349
2018-05-15 18:30:00+00:00,212.0,208.0,9.59,10.71,,47.59359,-54.27349
2018-05-15 18:40:00+00:00,222.0,230.0,9.57,11.73,,47.59359,-54.27349
2018-05-15 18:50:00+00:00,219.0,220.0,10.17,12.53,,47.59359,-54.27349
2018-05-15 19:00:00+00:00,217.0,218.0,10.26,11.75,,47.59359,-54.27349
2018-05-15 19:10:00+00:00,214.0,215.0,9.45,10.98,,47.59359,-54.27349
2018-05-15 19:20:00+00:00,217.0,220.0,9.13,10.23,,47.59359,-54.27349
2018-05-15 19:30:00+00:00,225.0,231.0,9.58,10.92,,47.59359,-54.27349
2018-05-15 19:40:00+00:00,225.0,225.0,11.11,12.53,,47.59359,-54.27349
2018-05-15 19:50:00+00:00,226.0,223.0,11.51,12.85,,47.59359,-54.27349
2018-05-15 20:00:00+00:00,228.0,233.0,11.65,13.27,,47.59359,-54.27349
2018-05-15 20:10:00+00:00,232.0,231.0,10.61,12.06,,47.59359,-54.27349
2018-05-15 20:20:00+00:00,232.0,235.0,11.18,12.46,,47.59359,-54.27349
2018-05-15 20:30:00+00:00,224.0,223.0,11.31,13.47,,47.59359,-54.27349
2018-05-15 20:40:00+00:00,223.0,227.0,10.83,11.92,,47.59359,-54.27349
2018-05-15 20:50:00+00:00,227.0,229.0,8.79,9.62,,47.59359,-54.27349
2018-05-15 21:00:00+00:00,229.0,231.0,8.22,9.07,,47.59359,-54.27349
2018-05-15 21:10:00+00:00,228.0,231.0,8.78,10.32,,47.59359,-54.27349
2018-05-15 21:20:00+00:00,231.0,229.0,9.71,11.13,,47.59359,-54.27349
2018-05-15 21:30:00+00:00,230.0,231.0,9.45,10.64,,47.59359,-54.27349
2018-05-15 21:40:00+00:00,227.0,224.0,9.7,10.99,,47.59359,-54.27349
2018-05-15 21:50:00+00:00,226.0,224.0,9.64,11.23,,47.59359,-54.27349
2018-05-15 22:00:00+00:00,228.0,233.0,8.91,10.21,,47.59359,-54.27349
2018-05-15 22:10:00+00:00,228.0,228.0,9.07,11.2,,47.59359,-54.27349
2018-05-15 22:20:00+00:00,226.0,227.0,10.05,11.26,,47.59359,-54.27349
2018-05-15 22:30:00+00:00,227.0,227.0,10.59,12.55,,47.59359,-54.27349
2018-05-15 22:40:00+00:00,226.0,227.0,9.84,11.23,,47.59359,-54.27349
2018-05-15 22:50:00+00:00,228.0,227.0,8.0,9.7,,47.59359,-54.27349
2018-05-15 23:00:00+00:00,223.0,223.0,9.97,10.77,,47.59359,-54.27349
2018-05-15 23:10:00+00:00,230.0,234.0,10.45,11.91,,47.59359,-54.27349
2018-05-15 23:20:00+00:00,227.0,233.0,11.16,12.82,,47.59359,-54.27349
2018-05-15 23:30:00+00:00,232.0,238.0,9.17,10.33,,47.59359,-54.27349
2018-05-15 23:40:00+00:00,231.0,233.0,8.57,9.66,,47.59359,-54.27349
2018-05-15 23:50:00+00:00,228.0,229.0,7.79,8.75,,47.59359,-54.27349
